WESTFORD NEEDLES, 2381

Orbit data source: Space-Track

WESTFORD NEEDLES, 2381 is space debris in LEO originally from a launch on Thu, 09 May 1963 UTC launched from the Air Force Western Test Range (AFWTR). Debris objects in space refer to the collection of defunct objects orbiting the Earth. Examples of debris include non-operational satellites, rocket bodies, and fragments generated from explosions, collisions, or faulty payload assembly.

Loading next visibility...
Identifier
2381, 1963-014AB
Orbit
LEO
Country
Flag of USUS
Related business
Manufacturer
Unknown
Mission
Spacecraft
Bus & Motor
Unknown
Mass
Unknown
Launch date (UTC)
1963-05-09 (63 years ago)
Launch vehicle
Unknown
Launch site
Air Force Western Test Range (AFWTR)
Object type
Payload
Rocket body
Debris
Shape & HBR
Unknown shape, 0.3 m
Radar Cross Section
Medium (>0.1 m² and <1 m²)

Expand to show TLE details & history
Last TLE update: 2 weeks ago

TLE from 2 weeks ago
0 WESTFORD NEEDLES
1  2381U 63014AB  25337.33265193 -.00000056  00000-0 -26733-1 0  9995
2  2381  87.2849 116.5410 0221836  82.9683 279.6345  8.67470009374281
Epoch: 2025-12-03T07:59Z
TLE epoch observation values (Epoch: 2025-12-03T07:59:01.126Z)
Latitude
-0.00007°
Longitude
-75.61866°
Altitude
3,597.063 km
Speed
6.332 km/s
True Right ascension
07h 46m 09s
True Declination
0° 00' 00"
Sunlit
Object was in daylight at epoch
Visualization orbit readout
Latitude
Unknown
Longitude
Unknown
Altitude
Unknown
Speed
Unknown
Apparent Right ascension
Unknown
Apparent Declination
Unknown
Sunlit
N/A
Visualization observer readout
Local Sidereal Time
19:47:45
Azimuth
Unknown
Elevation
Unknown
Doppler factor
Unknown
Orbital elements
Apogee altitude
3,846.936 km
Perigee altitude
3,403.123 km
Semi-major axis
10,003.167 km
Eccentricity
0.02218
Inclination
87.2849°
RAAN
116.541°
Arg. of periapsis
82.9683°
True anomaly
277.11743°
Mean anomaly
279.6345°
Eccentric anomaly
278.37703°
Mean motion
2.16939 °/min
Orbital period
165.95 mins
BSTAR
-0.026733

Documentation

Showing up to 5 results
|